Regional Weather Roundup
Issued by NWS

Home | Current Version | Previous Version | Text Only | Print | Product List | Glossary Off
Versions: 1 2 3 4 5 6 7 8 9 10 11 12 13 14 15 16 17 18 19 20 21 22 23 24 25 26 27 28 29 30 31 32 33 34 35 36 37 38 39 40 41 42 43 44 45 46 47 48 49 50

000
ASUS43 KMPX 221801
RWRMN
WEATHER ROUNDUP FOR MINNESOTA
NATIONAL WEATHER SERVICE TWIN CITIES/CHANHASSEN MN
100 PM CDT FRI SEP 22 2017


NOTE: "FAIR" INDICATES FEW OR NO CLOUDS BELOW 12,000 FEET WITH NO
SIGNIFICANT WEATHER AND/OR OBSTRUCTIONS TO VISIBILITY. N/A MEANS
CURRENT SKY AND/OR WEATHER CONDITIONS ARE NOT AVAILABLE.

MNZ060>063-068>070-221900-
   Twin Cities Metro

CITY           SKY/WX    TMP DP  RH WIND       PRES   REMARKS
TWIN CITIES    MOSUNNY   89  73  59 S9        29.83F HX  97
6HR MIN TEMP:  74; 6HR MAX TEMP:  89;

ST PAUL        SUNNY     88  73  61 SE13      29.83F HX  95
CRYSTAL        SUNNY     87  70  56 S14G20    29.81F HX  92
BLAINE         MOSUNNY   88  72  58 S10       29.83F HX  94
LAKEVILLE      SUNNY     88  72  58 S10G17    29.84S HX  94
EDEN PRAIRIE   SUNNY     88  73  61 S15       29.81F HX  95
6HR MIN TEMP:  73; 6HR MAX TEMP:  88;

SOUTH ST PAUL  SUNNY     88  70  54 SE10G16   29.83F HX  93
LAKE ELMO      FAIR      86  73  66 SE8       29.87S HX  93
$$
MNZ001>005-007-008-013>017-022>024-027-028-221900-
   Northwest Minnesota

CITY           SKY/WX    TMP DP  RH WIND       PRES   REMARKS
BEMIDJI        SUNNY     77  66  68 E10G16    29.77F
HALLOCK          N/A     72  54  53 NE13      29.76F
ROSEAU         MOSUNNY   70  61  73 E15       29.81F
WARROAD        CLOUDY    63  57  82 NE10      29.83F
THIEF RVR FALL MOSUNNY   72  63  73 E17       29.76F
CROOKSTON      MOSUNNY   73  64  73 E18G24    29.72F
FOSSTON        SUNNY     82  64  54 SE7       29.74S
DETROIT LAKES  MOSUNNY   81  70  69 S13       29.73F
MOORHEAD       SUNNY     82  70  65 SE8       29.67F
PARK RAPIDS    CLOUDY    77  71  82 SE18      29.75F
MAHNOMEN       FAIR      80  69  68 SE7G16    29.72S
$$
MNZ006-009>011-018-025>026-221900-
   North Central Minnesota

CITY           SKY/WX    TMP DP  RH WIND       PRES   REMARKS
BAUDETTE       CLOUDY    69  64  84 E10       29.82F
FLAG ISLAND    PTSUNNY   64  55  72 N10       29.83F
INTL FALLS     PTSUNNY   73  64  73 E9        29.84F
6HR MIN TEMP:  59; 6HR MAX TEMP:  74;

WASKISH        CLOUDY    79  66  65 E10G16    29.78F
BIG FORK       MOSUNNY   81  63  54 S7        29.82F
LONGVILLE      CLOUDY    75  70  83 SE5       29.80F
GRAND RAPIDS   PTSUNNY   75  67  76 SE10      29.85F
CRANE LAKE     CLOUDY    73  66  78 CALM      29.85F
ORR            CLOUDY    81  57  44 SE6       29.82F
COOK           CLOUDY    77  63  61 SE5       29.86S
WALKER         CLOUDY    74  68  79 E6        29.77F
$$
MNZ012-019>021-037-221900-
   Northeast Minnesota

CITY           SKY/WX    TMP DP  RH WIND       PRES   REMARKS
DULUTH         CLOUDY    68  64  87 S9        29.86F
6HR MIN TEMP:  60; 6HR MAX TEMP:  69; 6HR PCP:  0.49;

ELY            CLOUDY    72  61  68 CALM      29.88R
HIBBING        CLOUDY    75  64  68 SE12      29.85S
EVELETH        MOSUNNY   74  60  60 SE8       29.88S
DULUTH HARBOR  CLOUDY    66  64  94 CALM      29.83F THUNDER
GRAND MARAIS     N/A     71  67  87 VRB5      29.84F
$$
MNZ029>031-032-039>041-046>048-054>057-064-221900-
   West Central Minnesota

CITY           SKY/WX    TMP DP  RH WIND       PRES   REMARKS
FERGUS FALLS   MOSUNNY   84  72  65 S20       29.68F
WHEATON        PTSUNNY   82  70  65 SE10      29.69F
MORRIS         SUNNY     84  73  70 SE17      29.70F HX  91
ALEXANDRIA     CLOUDY    79  72  79 SE17G23   29.77F
ELBOW LAKE     FAIR      80  74  80 E17       29.72F HAZE
WADENA         CLOUDY    81  72  74 SE13G18   29.74F
GLENWOOD       SUNNY     81  73  78 SE16      29.77F
APPLETON       MOSUNNY   86  70  58 SE12G20   29.70F HX  90
BENSON         PTSUNNY   86  73  66 S12       29.74F HX  93
ORTONVILLE     PTSUNNY   84  72  65 NE12G18   29.68F
MADISON        MOSUNNY   90  72  55 S13G18    29.69F HX  96
WILLMAR        FAIR      84  73  70 SE12G17   29.76F HX  91
$$
MNZ033>034-036-042>043-049>051-058-059-221900-
   Central Minnesota

CITY           SKY/WX    TMP DP  RH WIND       PRES   REMARKS
ST CLOUD       MOSUNNY   81  75  82 SE12      29.81F
6HR MIN TEMP:  70; 6HR MAX TEMP:  81; 6HR PCP:  0.01;

SAUK CENTRE    CLOUDY    79  73  81 SE17      29.78F
PAYNESVILLE    SUNNY     82  74  76 SE10      29.79F
AITKIN         CLOUDY    75  70  83 S14       29.81F
PINE RIVER     CLOUDY    73  66  78 SE9       29.82F
BRAINERD       PTSUNNY   79  71  76 SE10G21   29.80S HAZE
STAPLES        PTSUNNY   79  72  78 SE12G17   29.76F
LITTLE FALLS   MOSUNNY   81  64  57 S10       29.80S
LITCHFIELD     SUNNY     86  73  66 SE9       29.78F HX  93
BUFFALO        SUNNY     85  71  62 SE8G16    29.82S
MAPLE LAKE     PTSUNNY   84  74  71 SE5       29.82S HX  92
HUTCHINSON     MOSUNNY   87  74  66 S10       29.80F HX  95
$$
MNZ037-044-045-052-053-221900-
   East Central Minnesota

CITY           SKY/WX    TMP DP  RH WIND       PRES   REMARKS
PRINCETON      MOSUNNY   84  73  70 SE12G17   29.83S HX  91
MORA           CLOUDY    77  70  78 S9        29.86R
RUSH CITY      MOSUNNY   84  72  67 SE10      29.85S
MOOSE LAKE     PTSUNNY   70  68  94 SE5       29.84F
HINCKLEY       MOCLDY    73  72  94 E10       29.86R
CLOQUET        PTSUNNY   70  64  83 SE6       29.86F
MCGREGOR       CLOUDY    73  68  83 S12       29.85R
$$
MNZ071>073-080-081-089-090-097-098-221900-
   Southwest Minnesota

CITY           SKY/WX    TMP DP  RH WIND       PRES   REMARKS
MONTEVIDEO     SUNNY     90  72  55 S9G17     29.72F HX  96
GRANITE FALLS  SUNNY     88  72  59 SE12G18   29.74F HX  95
CANBY          MOSUNNY   87  70  57 S13G22    29.72F HX  92
MARSHALL       MOSUNNY   88  71  57 S18       29.71F HX  94
REDWOOD FALLS  LGT RAIN  90  69  50 S20G25    29.74F HX  94
OLIVIA         SUNNY     88  72  58 S13       29.75F HX  94
PIPESTONE      SUNNY     86  70  58 S18       29.75F HX  90
WORTHINGTON    SUNNY     87  70  56 S20G26    29.79F HX  92
JACKSON        SUNNY     86  68  54 S18G25    29.82F
TRACY          SUNNY     88  72  59 S16G24    29.74F HX  95
SLAYTON        SUNNY     87  64  46 S16G25    29.78S
$$
MNZ065>067-074>077-082>085-091>093-221900-
   South Central Minnesota

CITY           SKY/WX    TMP DP  RH WIND       PRES   REMARKS
MANKATO        SUNNY     88  72  58 S14G22    29.82F HX  94
NEW ULM        SUNNY     86  70  58 S21G26    29.77F HX  90
ST JAMES       SUNNY     88  70  55 S22G28    29.79F HX  92
FAIRMONT       SUNNY     88  71  57 S24       29.81F HX  94
GLENCOE        SUNNY     89  75  63 S13G18    29.79F HX  98
FARIBAULT      SUNNY     88  72  58 S14G22    29.85S HX  94
OWATONNA       SUNNY     88  72  58 S22G31    29.85F HX  94
WASECA         SUNNY     86  68  54 S16G23    29.86S
ALBERT LEA     SUNNY     90  70  51 S16G22    29.87F HX  95
$$
MNZ078>079-086>088-094>096-221900-
   Southeast Minnesota

CITY           SKY/WX    TMP DP  RH WIND       PRES   REMARKS
ROCHESTER      SUNNY     89  68  49 S22G31    29.91F HX  93
6HR MIN TEMP:  71; 6HR MAX TEMP:  89;

RED WING       MOSUNNY   91  64  40 S13       29.84F HX  93
STANTON        SUNNY     89  71  54 S13G18    29.83S HX  94
DODGE CENTER   SUNNY     88  66  48 S16G23    29.90R HX  90
WINONA         SUNNY     91  66  43 S12G20    29.90F HX  94
AUSTIN         SUNNY     86  68  54 S10G20    29.90S
PRESTON        SUNNY     87  65  48 S18G25    29.94S
$$
ABBREVIATIONS USED IN REMARKS
   TC - TEMPERATURES IN CELSIUS
  WCI - WIND CHILL INDEX
   HX - HEAT INDEX
  VSB - VISIBILITY
$$




USA.gov is the U.S. government's official web portal to all federal, state and local government web resources and services.